Rechercher aéroport 
image banner adimage banner ad
image banner ad

DAAG - Alger / Houari Boumediene

Situé à Alger, Algeria

ICAO - DAAG, IATA - ALG

Données fournies par Airmate  

Information générale

Coordonnées: N36°41'38" E3°12'52"
Élévation : 82 feet MSL.
 
Évalué:
Voir évaluations:
[VIEW]
Voir autres Aéroports à Boumerdès Province

Données opérationnelles

Accessible au public
Heure actuelle UTC:
Heure actuelle locale:
Météo
METAR: DAAG 291100Z 08004KT 030V120 CAVOK 23/11 Q1026
TAF: TAF DAAG 290500Z 2906/3006 VRB02KT CAVOK PROB30 TEMPO 2906/2908 5000 BR BECMG 2910/2913 04010KT BECMG 2918/2921 VRB02KT
Voir NOTAMs / SUP AIP / TFR affectant cet aéroport [VIEW]
Fréquences de communication: [VIEW]

Pistes:

Identifiant RWYQFULongueur (ft)Largeur (ft)SurfaceLDA (ft)
0553°11483197ASP
23233°11483197
0992°11483148
27272°11483148

Coordonnées de l'aéroport

Adresse: Alger Algeria

Vue satellite de DAAG